Address 0x31fd32f848c5a4c0377b1476c613911c181f5985 3

 
Txn Hash Method
Block
From
To
Value [Txn Fee]
0xe902e2d215f247c9adf60d56f98ce487c8ec1f988581e2ce1fccfd50584627aaTransfer262482862022-09-23 18:44:1167 days 21 mins ago0x539bec82b81d3c0ec23b3649c0dc7cad396b40af IN 0x31fd32f848c5a4c0377b1476c613911c181f59851 ETH0.00001945
0x63c05a9146d985a7c49130d01ce26cbccaf5ed852b1fc7e76654aca7f0f4fd74Swap260116692022-09-22 17:30:2768 days 1 hr ago0x31fd32f848c5a4c0377b1476c613911c181f5985OUT0x617dee16b86534a5d792a4d7a62fb491b544111e0.006 ETH0.00023729
0x779626911a722ba3d4d99b866786f3714ba4bb7aee14557be2a1adb478801715Add Liquidity260105742022-09-22 17:22:0968 days 1 hr ago0x31fd32f848c5a4c0377b1476c613911c181f5985OUT Hop Protocol: ETH Liquidity Pool0 ETH0.00008656
0x73331c2fb46fbc317090b54f7feab24757eb95694806644bfe8cf53e9e57e939Approve260105392022-09-22 17:21:5768 days 1 hr ago0x31fd32f848c5a4c0377b1476c613911c181f5985OUT Hop Protocol: hETH Token0 ETH0.0000431
0xdbed07d8c895d12c5bf5b8ea04bc7f241a6883915a36808918d034a66e7d8e82Swap260103562022-09-22 17:20:3268 days 1 hr ago0x31fd32f848c5a4c0377b1476c613911c181f5985OUT Hop Protocol: ETH Liquidity Pool0 ETH0.0000743
0x9533047a6aa3eb5488836ba6506da32bb7996b8ac7774cdcf9f8df2019af7b6bSwap260103232022-09-22 17:20:2168 days 1 hr ago0x31fd32f848c5a4c0377b1476c613911c181f5985OUT Hop Protocol: ETH Liquidity Pool0 ETH0.00007781
0x67cbdf14e46d76df55833a961850a0534f5b180ad0a6c311331f0a17f1a59bf6Approve260100572022-09-22 17:18:0968 days 1 hr ago0x31fd32f848c5a4c0377b1476c613911c181f5985OUT 0x82af49447d8a07e3bd95bd0d56f35241523fbab10 ETH0.00004522
0xe30b63ab2d1be62ae8dcf359d6402cfd8de7e4ddecd105dcead8abde8ff5c767Swap260095502022-09-22 17:13:4168 days 1 hr ago0x31fd32f848c5a4c0377b1476c613911c181f5985OUT GMX: Router0 ETH0.00011659
0x8fca5a9ad43b7cba61d48dab8072c4514aea0dab909c3e6158be42fa671e940bBatch258759082022-09-22 5:07:3068 days 13 hrs ago0x31fd32f848c5a4c0377b1476c613911c181f5985OUT 0x16e25cf364cecc305590128335b8f327975d05600 ETH0.0000236
0xb721e3aa022744a91908a68e71c7ace546d2bfcd28a3047d847dc775d71fd95eBatch258756612022-09-22 5:06:1668 days 13 hrs ago0x31fd32f848c5a4c0377b1476c613911c181f5985OUT 0x16e25cf364cecc305590128335b8f327975d05600 ETH0.00003112
0x9f9d0558cc7fbe081f78c0dd15db1688074dfb8bf6681c17af0fcd9daf2678c5Swap ETH For Exa...258736762022-09-22 4:56:0168 days 14 hrs ago0x31fd32f848c5a4c0377b1476c613911c181f5985OUT SushiSwap: Router0.000001885798054 ETH0.00001841
0x83b1488e1218d9dcef87f388aabde1bd58c9e5fa8c53fd2cb01adece9621b5a6Multicall258734312022-09-22 4:54:4768 days 14 hrs ago0x31fd32f848c5a4c0377b1476c613911c181f5985OUT Uniswap V3: Router 20.000044178676478 ETH0.00001843
0xe8086282b2597d94be2bc87c25cddf4a8892c52b6c054b5c6ce315c788d5121aMulticall258732012022-09-22 4:53:2768 days 14 hrs ago0x31fd32f848c5a4c0377b1476c613911c181f5985OUT Uniswap V3: Router 20.000000294524432 ETH0.00002013
0x7c908f4cf2a1ad0f88360c878f27604851db20a770de5e3235ca5b5e1614b141Swap ETH For Exa...258729792022-09-22 4:51:5268 days 14 hrs ago0x31fd32f848c5a4c0377b1476c613911c181f5985OUT SushiSwap: Router0.000061393083507 ETH0.00001769
0x20c7c9d6e8f458a4d2f2c0fe2c4f6e2722cc402c7915228343be8ebae0159a34Swap ETH For Exa...258728372022-09-22 4:50:2368 days 14 hrs ago0x31fd32f848c5a4c0377b1476c613911c181f5985OUT SushiSwap: Router0.000042622390736 ETH0.0000173
0x9dec661b0f2edc01af5d7187e4339b408b42092a3b43ad0a38c408f76e5dc933Swap ETH For Exa...258726402022-09-22 4:48:4268 days 14 hrs ago0x31fd32f848c5a4c0377b1476c613911c181f5985OUT SushiSwap: Router0.000000948505772 ETH0.00001729
0x6cf6ac2140bc57b0c361f01869fb68a57b81a3fc0e69b1cc2f91d16f7aec329dMulticall258723652022-09-22 4:46:0268 days 14 hrs ago0x31fd32f848c5a4c0377b1476c613911c181f5985OUT Uniswap V3: Router 20.000001186741009 ETH0.00002002
0xd28e30d79f6ada3682c7c9e4105c914bf1198167ff31f484b5f90c166b752277Swap Exact ETH F...258719992022-09-22 4:43:2268 days 14 hrs ago0x31fd32f848c5a4c0377b1476c613911c181f5985OUT SushiSwap: Router0.005 ETH0.0000166
0x6afe11236a8eb342236a61d39c8d9b6eaa1456a87f9ae25116b7c4edc7ab32a9Multicall258710982022-09-22 4:37:3268 days 14 hrs ago0x31fd32f848c5a4c0377b1476c613911c181f5985OUT Uniswap V3: Router 20.003 ETH0.0000164
0xc4d8b265ea2a92b9b6d8d126b237ad1926250c6d77e45df33c72d2089e341815Multicall258691582022-09-22 4:26:1068 days 14 hrs ago0x31fd32f848c5a4c0377b1476c613911c181f5985OUT Uniswap V3: Router 20.005 ETH0.00002625
0x5c553735aec8215f77d76ff8eeccfab234d24a560239cef7e8f8730bd00452fbMulticall258673052022-09-22 4:14:0868 days 14 hrs ago0x31fd32f848c5a4c0377b1476c613911c181f5985OUT Uniswap V3: Router 20.007 ETH0.00001599
0x78b792ebf58b40ee394287b0b3b4dae99015b5c8ccb7105f04012e0638607f20Multicall258669552022-09-22 4:11:4268 days 14 hrs ago0x31fd32f848c5a4c0377b1476c613911c181f5985OUT Uniswap V3: Router 20.008 ETH0.00001658
0x65dd67a1e870e1ee2b9ba6ecab605999e5e1e399837c3e7a1e06167046f63288Multicall258649532022-09-22 4:01:1668 days 15 hrs ago0x31fd32f848c5a4c0377b1476c613911c181f5985OUT Uniswap V3: Router 20.01 ETH0.00002387
0x1db668b4ddec333c54c03ac1ba1f5ff0bc66e306e2726c32dd08323be90d6d40Multicall258645322022-09-22 3:58:5568 days 15 hrs ago0x31fd32f848c5a4c0377b1476c613911c181f5985OUT Uniswap V3: Router 20.02 ETH0.00001636
0xb687e7ae3ffd5f8d27958ae702ab02ef16c4e4c49d86b510bce05b668fbd50aeFulfill Order258630062022-09-22 3:51:1368 days 15 hrs ago0x31fd32f848c5a4c0377b1476c613911c181f5985OUT 0x998ef16ea4111094eb5ee72fc2c6f4e6e86476660.003567 ETH0.00002259
[ Download CSV Export 
Latest 8 internal transactions
Parent Txn Hash Block From To Value
0x9f9d0558cc7fbe081f78c0dd15db1688074dfb8bf6681c17af0fcd9daf2678c5258736762022-09-22 4:56:0168 days 14 hrs ago SushiSwap: Router0x31fd32f848c5a4c0377b1476c613911c181f59850.000000009382079874 ETH
0x83b1488e1218d9dcef87f388aabde1bd58c9e5fa8c53fd2cb01adece9621b5a6258734312022-09-22 4:54:4768 days 14 hrs ago Uniswap V3: Router 20x31fd32f848c5a4c0377b1476c613911c181f59850.000000044134541936 ETH
0xe8086282b2597d94be2bc87c25cddf4a8892c52b6c054b5c6ce315c788d5121a258732012022-09-22 4:53:2768 days 14 hrs ago Uniswap V3: Router 20x31fd32f848c5a4c0377b1476c613911c181f59850.000000000294230202 ETH
0x7c908f4cf2a1ad0f88360c878f27604851db20a770de5e3235ca5b5e1614b141258729792022-09-22 4:51:5268 days 14 hrs ago SushiSwap: Router0x31fd32f848c5a4c0377b1476c613911c181f59850.000000305438226404 ETH
0x20c7c9d6e8f458a4d2f2c0fe2c4f6e2722cc402c7915228343be8ebae0159a34258728372022-09-22 4:50:2368 days 14 hrs ago SushiSwap: Router0x31fd32f848c5a4c0377b1476c613911c181f59850.000000212051695206 ETH
0x9dec661b0f2edc01af5d7187e4339b408b42092a3b43ad0a38c408f76e5dc933258726402022-09-22 4:48:4268 days 14 hrs ago SushiSwap: Router0x31fd32f848c5a4c0377b1476c613911c181f59850.000000004718934191 ETH
0x6cf6ac2140bc57b0c361f01869fb68a57b81a3fc0e69b1cc2f91d16f7aec329d258723652022-09-22 4:46:0268 days 14 hrs ago Uniswap V3: Router 20x31fd32f848c5a4c0377b1476c613911c181f59850.000000001185555454 ETH
0x745084db2ca215414fb562a60a12c55a5a1aee9048c070035d50b58a9b54e01d204454072022-08-16 23:09:26104 days 19 hrs ago Synapse: Bridge0x31fd32f848c5a4c0377b1476c613911c181f59850.545067587984617731 ETH
[ Download CSV Export 
Latest 1 Deposit
[ Download CSV Export 
Loading

Contract Name:
0 ETH

Compiler Version
0

Optimization Enabled:
0 ETH

Other Settings:
-NA-
Block Transaction Gas Used Reward
Age Block Fee Address BC Fee Address Voting Power Jailed Incoming
Block Uncle Number Difficulty Gas Used Reward
Loading
Make sure to use the "Vote Down" button for any spammy posts, and the "Vote Up" for interesting conversations.